Showing default

SPACEMOBILE-012, 100241

Orbit data source: Space-Track

SPACEMOBILE-012, 100241 is a payload satellite owned by AST & Science (US) in LEO that was launched on Wed, 05 Aug 2026 UTC launched from the Air Force Eastern Test Range (AFETR). Payload-class satellites include a variety of spacecraft equipped with specific instruments for various scientific and technological missions. These include communications satellites like Starlink; space stations such as the ISS; scientific satellites like the Hubble; Earth observation satellites from companies like Planet Labs, Umbra, and HawkEye 360; GPS; miniature CubeSats for education and research; and military/defense satellites.

Loading next visibility...
Identifier
100241, 2026-179B
Orbit
LEO
Country
Flag of USUS
Related business
Manufacturer
AST & Science
Mission
Operational spacecraft
Bus & Motor
BB BLOCK-2, EP
Mass
6,740 kg wet, 5,830 kg dry
Launch date (UTC)
2026-08-05 (1 month ago)
Launch vehicle
Unknown
Launch site
Air Force Eastern Test Range (AFETR)
Object type
Payload
Rocket body
Debris
Shape & HBR
CYL + 2 PAN + PLATE, 14.5 m
Radar Cross Section
Large (>1 m²)

Expand to show TLE details & history
Last TLE update: 14 hours ago

TLE from 14 hours ago
0 SPACEMOBILE-012
1 A0241U 26179B   26251.20396745  .00001657  00000-0  10892-3 0  9996
2 A0241  52.9953 174.1264 0007477  81.2305 278.9533 15.13267160  5139
Epoch: 2026-09-08T04:53Z
TLE epoch observation values (Epoch: 2026-09-08T04:53:42.787Z)
Latitude
-0.00001°
Longitude
113.42437°
Altitude
526.32 km
Speed
7.602 km/s
True Right ascension
11h 36m 30s
True Declination
0° 00' 00"
Sunlit
Object was in daylight at epoch
Visualization orbit readout
Latitude
Unknown
Longitude
Unknown
Altitude
Unknown
Speed
Unknown
Apparent Right ascension
Unknown
Apparent Declination
Unknown
Sunlit
N/A
Visualization observer readout
Local Sidereal Time
10:42:45
Azimuth
Unknown
Elevation
Unknown
Doppler factor
Unknown
Orbital elements
Apogee altitude
531.688 km
Perigee altitude
521.363 km
Semi-major axis
6,904.662 km
Eccentricity
0.00075
Inclination
52.9953°
RAAN
174.1264°
Arg. of periapsis
81.2305°
True anomaly
278.86865°
Mean anomaly
278.9533°
Eccentric anomaly
278.91098°
Mean motion
3.78294 °/min
Orbital period
95.16 mins
BSTAR
0.00010892
Loading maneuver chart data...
Computing Atmospheric mass density...
Loading historical data...
Loading historical data...
Loading historical data...
Loading historical data...
Loading historical data...
Loading historical data...
Loading historical data...
Other satellites on launch #179 in the year 2026 (2026-08-05 UTC)

Documentation

Showing up to 5 results
|